Tracking 35331 objects as of 15-Sep-2026
HD Live streaming from Space Station
objects crossing your sky now

BEIDOU 3M17

Track BEIDOU 3M17 now!
BEIDOU 3M17 is classified as:


NORAD ID: 43706
Int'l Code: 2018-093A
Launch date: November 18, 2018
Source: People's Republic of China (PRC)
Launch site: Xichang Space Center, China (XSC)
Your satellite tracking list
Your tracking list is empty




NASA's NSSDC Master Catalog

Two Line Element Set (TLE):
1 43706U 18093A   26256.60659924  .00000008  00000-0  00000+0 0  9990
2 43706  54.1661 179.2985 0008516 303.3359 214.3267  1.86228386 53188
Source of the keplerian elements: AFSPC